Retour au catalogue

MinXSS-2

MINXSS-2

ActifRadio amateurSSO
NORAD 43758·PAYLOAD·🇺🇸 United States

Lancé Dec 3, 2018 depuis Vandenberg Space Force Base

Loading…

Prochains Passages (prochaines 24 heures)

TLE

FraisSource: AMSAT

Époque: Sep 14, 2026, 10:34 UTC

1 43758U 18099A   26257.44077921  .00036469  00000-0  57983-3 0  9993
2 43758  97.4451 336.7134 0005111 291.5472  68.5236 15.53218013427950

Suivez MinXSS-2 en temps réel avec AllMySat

Download on the App Store